Weather in Sredniye Achaluki

Russia / Republic of Ingushetia     43°22′09″N   44°43′57″E
temp.,
°C
wind,
m/s
gust,
m/s
humid.,
%
clouds,
%
prec.,
mm/h
press.,
hPa
HPBL,
m
16 april, fri
fri1600:00+9se116516 0.0 101810
03:00+8s11675 0.0 101910
06:00+8s11725 0.0 102010
09:00+14ene34521 0.0 1019808
12:00+17ene54460 0.0 10181415
15:00+18ene55435 0.0 10171501
18:00+15e485556 0.1 1017248
21:00+11e38685 0.1 1018140
17 april, sat
sat1700:00+10s22695 0.0 101910
03:00+9se11677 0.0 101810
06:00+10wsw1167100 0.0 101710
09:00+16wnw3354100 0.0 1018518
12:00+17wnw5556100 0.0 10191304
15:00+15nw6567100 0.0 1019996
18:00+11wnw4688100 0.3 1022616
21:00+10wsw2292100 0.8 1023311
18 april, sun
sun1800:00+9se0191100 0.1 1022210
03:00+9nne2293100 0.1 1022270
06:00+9ene2496100 0.0 1021602
09:00+10e369199 0.1 1020470
12:00+15e557167 0.1 1017838
15:00+18e5561100 0.3 10151014
18:00+15ene467381 0.1 1015210
21:00+12ene1183100 0.5 101817
19 april, mon
mon1900:00+11se1189100 0.0 101710
03:00+11ssw1189100 0.0 101710
06:00+11sse1188100 0.0 101810
09:00+17ene456799 0.0 1016493
12:00+20e665365 0.0 10161009
15:00+21e6747100 0.0 10141051
18:00+18e51060100 0.0 1014389
21:00+13e486973 0.0 1014163
20 april, tue
tue2000:00+12e2274100 0.0 101220
03:00+13ese3368100 0.0 101058
06:00+13ene2273100 0.0 100927
09:00+19e3554100 0.0 1006219
12:00+26ene4539100 0.0 1003567
15:00+22nne3456100 0.0 1003177
18:00+19wnw2264100 0.0 100429
21:00+10wnw91394100 0.8 1015688